Wind_Speed
12 12 12 12 12 11 12 12 12 12 12 12 13 14 15 15 15 16 15 15 15 15 16 16 17 17 17 17 18 19 19 19 19 19 19 20 20 21 21 21 21 21 20
13 14 14 14 13 13 13 13 13 13 14 14 14 15 15 16 16 17 17 16 16 17 18 18 19 19 19 19 20 20 20 21 22 21 21 22 22 22 22 23 23 22 22
15 16 16 16 15 14 14 15 15 16 16 16 17 17 18 18 18 18 18 18 18 18 19 20 20 20 20 20 21 21 22 22 23 24 23 23 23 23 23 24 24 24 24
18 18 17 17 16 15 15 16 16 17 17 18 19 20 20 20 20 20 20 20 20 20 20 20 21 21 22 22 23 23 23 24 25 25 26 25 25 25 25 26 25 25 25
20 19 18 17 17 17 16 17 17 18 19 19 19 20 21 21 21 21 21 21 21 22 22 23 23 22 23 23 24 24 24 25 26 27 27 26 25 26 26 26 25 24 24
21 20 19 18 18 18 18 18 19 20 20 20 21 21 21 21 22 22 23 23 23 24 24 24 24 24 24 25 25 26 26 27 28 28 28 27 26 26 26 26 25 25 25
22 21 20 20 20 20 21 21 21 21 22 23 22 22 22 23 23 24 24 25 25 25 26 27 26 25 25 26 27 27 28 29 29 29 28 28 28 27 27 27 27 26 26
21 21 21 21 22 22 22 23 23 24 24 24 24 24 24 25 25 26 27 26 26 27 27 27 27 27 28 28 29 29 29 30 30 30 31 30 29 29 29 28 28 28 28
23 23 23 23 24 24 24 25 25 25 25 25 25 26 26 26 27 28 28 28 28 28 29 29 29 29 29 30 31 31 31 31 32 32 31 31 31 30 30 29 29 30 29
25 25 24 25 25 25 25 26 26 26 26 26 27 27 27 28 29 30 30 29 29 29 30 31 31 31 31 31 31 32 32 32 32 32 32 31 32 31 31 31 31 31 31
26 26 26 25 26 26 26 27 27 27 28 28 29 29 30 30 31 31 31 30 30 31 31 31 31 32 32 33 33 33 32 33 33 32 32 31 31 31 32 32 31 31 31
27 27 27 27 27 28 28 28 28 28 29 30 30 30 30 31 32 31 32 31 31 31 32 32 32 32 33 34 34 33 33 33 33 32 31 31 31 31 32 32 32 32 32
29 28 28 28 28 29 30 30 30 30 30 31 31 31 32 32 32 32 32 32 32 32 32 33 33 34 34 34 33 33 33 33 33 33 33 33 32 33 33 34 34 34 34
31 30 30 30 30 31 31 31 32 32 32 32 33 33 33 33 33 32 32 32 33 33 32 33 34 34 34 34 33 34 34 34 33 34 34 33 34 34 34 35 36 36 36
33 32 32 32 33 32 31 32 32 33 33 33 33 34 34 33 33 33 33 33 33 33 34 34 35 35 35 35 35 35 35 35 35 35 35 35 35 36 36 36 37 37 37
34 34 34 34 34 34 33 33 33 34 34 34 35 35 34 34 34 34 34 34 35 35 36 36 36 37 37 37 37 36 36 37 37 36 36 37 37 37 37 37 38 38 38
34 35 34 35 35 35 35 35 35 35 35 35 35 35 35 35 36 36 36 36 37 37 37 37 37 37 37 38 38 37 37 37 37 37 37 37 38 38 38 38 38 38 38
35 35 35 35 35 35 35 35 36 36 36 35 35 36 36 36 37 37 38 38 38 38 38 37 37 38 38 38 38 37 37 37 37 37 38 38 38 37 37 37 37 37 38
35 35 35 35 35 35 36 36 36 36 36 36 36 36 36 37 37 38 38 39 39 38 38 39 39 39 39 39 38 38 38 38 38 38 38 38 38 38 37 37 37 37 38
35 35 36 35 35 36 36 36 37 37 37 37 37 37 37 38 39 39 39 39 39 38 38 39 38 38 39 39 39 39 39 39 39 39 38 38 38 37 37 37 37 37 37
34 35 35 36 37 37 37 37 38 38 38 38 38 38 39 39 39 40 40 39 39 38 38 38 38 38 39 39 39 39 39 38 38 39 38 37 36 36 36 37 37 37 37
34 35 36 37 38 38 38 38 39 39 38 39 39 39 39 39 40 39 39 39 38 38 38 38 38 39 39 39 40 40 39 38 38 37 37 38 37 37 37 37 38 37 38
36 36 37 37 37 38 39 38 39 39 39 40 40 41 41 41 40 39 38 38 37 38 38 38 38 38 38 38 38 38 38 37 38 38 38 38 38 38 38 38 38 38 38
38 38 38 38 38 38 39 39 40 39 39 40 39 39 39 38 38 38 38 37 37 37 37 37 37 37 38 38 38 38 38 38 39 39 39 38 38 38 38 39 38 37 37
36 36 36 37 38 38 38 38 39 39 39 39 39 39 39 38 37 37 37 37 37 37 37 37 37 37 37 38 38 38 38 38 39 38 38 39 39 39 38 39 38 37 36
34 34 34 35 36 37 37 37 38 38 37 37 37 38 38 38 38 38 37 36 37 37 37 37 37 37 38 38 38 37 37 38 38 39 39 39 38 38 38 38 37 36 35
Wind_Direction
313 312 308 305 302 299 298 300 301 303 302 303 305 307 308 308 309 310 311 309 306 305 303 302 302 301 300 300 299 298 300 302 302 304 302 301 302 301 302 302 303 305 307
309 307 306 305 303 300 299 298 297 299 299 299 301 305 306 306 305 306 307 307 305 303 303 302 301 300 299 300 300 299 299 300 301 302 303 300 300 299 298 298 300 301 302
307 304 304 303 302 299 299 297 296 296 296 296 298 302 303 302 301 301 303 303 303 304 303 302 300 299 299 300 301 300 301 300 300 301 302 301 298 298 297 297 298 299 298
304 301 300 300 299 296 297 297 296 295 295 295 297 299 300 300 299 299 300 301 303 303 302 302 300 298 297 298 299 300 301 300 300 300 300 301 298 296 295 295 295 297 297
302 299 299 298 296 294 296 297 295 295 295 296 297 298 298 298 299 299 300 301 301 300 300 300 299 297 295 296 298 299 299 299 300 301 300 301 299 297 296 296 297 298 299
299 298 296 295 293 293 294 295 295 295 296 296 296 296 297 297 299 300 301 301 300 298 298 298 298 296 294 294 295 296 297 297 298 299 299 299 298 297 295 296 298 298 298
298 295 293 291 291 291 292 292 292 293 294 295 294 294 296 297 298 299 300 300 300 299 297 299 300 299 297 295 294 295 295 296 297 297 298 298 297 297 296 295 296 297 297
296 294 292 289 288 290 292 292 292 291 291 292 294 294 294 296 298 299 299 299 299 299 298 300 298 297 297 295 295 295 295 296 297 298 297 297 297 296 295 294 292 293 294
292 292 291 288 287 289 290 292 292 292 291 290 290 293 295 298 299 299 299 299 300 300 299 300 298 297 297 296 296 295 294 295 295 296 296 295 295 294 293 292 291 291 290
289 290 290 287 286 287 289 291 292 291 291 290 290 291 293 295 296 297 298 298 300 299 297 296 297 298 297 298 297 296 296 295 295 295 294 293 293 293 293 292 291 290 289
287 287 288 288 287 287 288 289 290 291 290 290 290 291 292 294 295 294 296 297 298 298 297 297 296 296 296 297 297 297 296 296 295 293 293 292 292 293 293 292 291 291 290
283 284 285 286 286 287 287 287 287 289 290 290 290 290 291 292 293 294 295 296 297 297 297 296 295 296 296 297 298 298 297 296 295 294 292 292 291 291 291 291 290 289 289
281 282 283 284 285 285 285 286 287 288 289 290 288 288 290 291 292 293 294 295 296 297 297 297 297 297 297 297 298 298 297 296 295 294 293 291 290 290 291 291 290 290 291
280 281 283 284 284 284 285 286 287 288 290 291 291 291 291 292 293 294 295 296 296 298 298 298 298 298 297 296 296 296 295 295 295 294 294 291 290 290 290 290 290 290 290
278 280 281 283 284 285 285 286 287 288 290 291 292 291 291 292 293 294 296 296 296 296 297 297 296 296 296 296 296 295 295 295 295 294 292 292 291 290 289 289 290 290 290
277 278 280 281 282 284 285 285 286 287 288 290 291 291 290 291 292 294 294 294 294 294 296 296 296 295 295 295 295 294 294 294 295 293 292 292 292 290 289 289 290 290 290
276 277 278 279 280 281 281 283 285 286 288 289 290 290 289 289 291 292 292 293 294 294 295 296 296 296 295 294 294 294 294 295 295 295 293 292 292 291 290 291 290 290 289
277 278 279 280 281 282 282 283 284 285 287 288 289 289 288 289 290 291 291 292 293 294 294 294 295 295 295 295 294 294 294 294 294 295 294 294 293 292 291 291 291 290 290
279 279 278 279 281 281 282 283 284 285 286 287 289 289 288 289 289 290 291 291 291 293 293 295 296 296 296 295 294 293 293 293 293 294 293 292 292 291 291 290 290 290 290
278 278 278 279 281 282 282 282 283 284 285 287 288 287 287 288 289 290 290 290 291 293 294 294 294 296 296 295 294 294 293 292 293 294 294 293 292 291 291 290 290 289 289
280 280 280 280 281 282 282 282 284 284 285 287 288 287 287 288 289 290 289 290 291 292 294 294 294 295 296 296 296 295 294 293 293 293 293 293 293 292 291 290 290 289 289
279 280 282 282 282 282 282 281 283 286 288 288 288 289 290 290 290 289 290 291 292 292 293 294 294 294 295 296 296 295 294 293 292 292 292 293 293 293 292 291 291 291 289
279 280 282 283 282 283 284 284 285 286 287 288 289 289 290 290 291 291 290 290 291 292 293 294 294 295 296 296 295 294 294 293 292 292 292 292 292 292 292 292 292 291 291
281 281 282 282 282 283 283 283 284 285 287 288 290 292 292 292 291 292 292 292 292 293 293 294 295 296 297 298 297 294 293 292 292 292 291 291 291 290 291 292 291 291 291
282 283 283 282 281 282 284 284 285 287 289 290 290 291 292 293 293 292 292 292 292 292 291 293 295 296 297 298 297 296 294 293 293 292 291 291 290 290 290 290 290 290 290
287 287 286 285 284 284 285 286 287 287 287 288 289 290 291 291 292 292 291 291 291 291 291 293 295 296 298 298 297 297 296 295 294 293 292 292 291 290 289 289 290 290 290
Height
5900 5899 5898 5897 5896 5896 5895 5894 5893 5893 5892 5891 5890 5889 5888 5886 5885 5883 5882 5881 5879 5878 5877 5875 5874 5873 5872 5871 5869 5868 5866 5865 5864 5863 5861 5860 5858 5857 5856 5855 5853 5851 5849
5897 5896 5895 5895 5894 5893 5892 5892 5891 5890 5889 5888 5887 5886 5884 5883 5882 5880 5878 5877 5875 5874 5873 5871 5870 5869 5867 5866 5865 5863 5862 5861 5859 5858 5857 5855 5854 5852 5851 5849 5848 5846 5844
5894 5893 5892 5892 5891 5890 5889 5889 5888 5887 5886 5885 5884 5883 5881 5879 5878 5876 5874 5873 5871 5870 5868 5867 5865 5864 5863 5861 5860 5858 5857 5856 5854 5853 5851 5850 5848 5846 5845 5843 5841 5840 5838
5891 5890 5889 5888 5887 5887 5886 5885 5884 5883 5882 5881 5880 5878 5877 5875 5873 5872 5870 5868 5867 5865 5864 5862 5860 5859 5857 5856 5855 5853 5852 5850 5848 5847 5845 5844 5842 5840 5838 5836 5835 5833 5831
5887 5886 5885 5884 5883 5882 5882 5881 5880 5879 5878 5876 5875 5874 5872 5870 5869 5867 5865 5863 5862 5861 5859 5857 5855 5853 5852 5850 5849 5847 5846 5844 5842 5840 5839 5837 5835 5833 5831 5829 5828 5826 5824
5883 5882 5881 5880 5879 5878 5877 5876 5875 5874 5873 5871 5870 5868 5867 5865 5864 5862 5860 5858 5857 5855 5853 5851 5849 5847 5846 5844 5843 5841 5839 5837 5836 5834 5832 5830 5828 5826 5824 5822 5820 5819 5818
5878 5877 5876 5875 5875 5874 5872 5871 5870 5869 5868 5866 5864 5863 5861 5860 5858 5856 5854 5852 5850 5849 5846 5844 5843 5841 5839 5838 5836 5834 5832 5830 5828 5826 5824 5822 5820 5818 5816 5815 5812 5811 5810
5874 5872 5871 5870 5869 5868 5867 5866 5864 5863 5862 5860 5859 5857 5856 5854 5852 5850 5848 5845 5844 5842 5840 5838 5836 5834 5832 5830 5828 5826 5824 5822 5820 5818 5816 5814 5812 5810 5808 5806 5805 5803 5802
5869 5867 5866 5865 5864 5862 5861 5860 5858 5857 5855 5854 5852 5851 5849 5848 5846 5844 5841 5839 5837 5835 5833 5831 5829 5827 5824 5822 5820 5818 5816 5813 5811 5809 5807 5805 5803 5801 5800 5798 5796 5794 5793
5862 5861 5860 5859 5857 5856 5855 5853 5851 5850 5849 5847 5845 5844 5842 5841 5839 5837 5834 5832 5830 5828 5826 5824 5822 5819 5816 5814 5812 5809 5807 5805 5803 5801 5798 5796 5794 5792 5790 5789 5787 5785 5783
5856 5855 5853 5852 5850 5849 5848 5846 5845 5843 5842 5840 5839 5837 5835 5833 5831 5829 5827 5824 5822 5820 5818 5815 5813 5811 5808 5806 5803 5801 5798 5796 5794 5792 5790 5788 5786 5783 5781 5779 5777 5775 5773
5849 5848 5846 5845 5844 5842 5841 5839 5838 5836 5834 5833 5831 5830 5828 5825 5823 5821 5819 5816 5814 5811 5809 5807 5805 5802 5800 5797 5794 5792 5789 5787 5784 5782 5781 5779 5777 5775 5772 5770 5768 5766 5763
5841 5840 5839 5838 5836 5835 5833 5831 5830 5828 5827 5825 5823 5821 5819 5817 5815 5812 5811 5808 5806 5803 5801 5798 5796 5794 5791 5788 5785 5783 5780 5777 5775 5773 5771 5769 5767 5764 5762 5760 5757 5755 5754
5832 5832 5831 5829 5828 5827 5825 5823 5822 5820 5819 5817 5815 5813 5811 5809 5807 5804 5802 5800 5797 5794 5791 5789 5787 5784 5781 5779 5776 5773 5771 5768 5765 5763 5760 5758 5756 5754 5752 5750 5748 5745 5743
5823 5822 5822 5821 5819 5817 5816 5814 5813 5811 5810 5808 5806 5804 5802 5800 5798 5795 5793 5790 5788 5785 5783 5780 5777 5775 5772 5769 5766 5764 5761 5758 5755 5752 5750 5748 5745 5743 5741 5738 5736 5734 5732
5813 5813 5812 5811 5810 5808 5807 5805 5803 5802 5800 5798 5796 5794 5792 5790 5788 5785 5783 5781 5778 5776 5773 5770 5767 5764 5761 5759 5756 5753 5750 5747 5744 5742 5739 5737 5734 5732 5729 5727 5724 5722 5720
5804 5803 5802 5801 5799 5798 5796 5795 5794 5792 5790 5788 5787 5784 5782 5780 5778 5775 5773 5770 5768 5765 5762 5760 5757 5753 5750 5747 5745 5742 5740 5737 5734 5731 5728 5725 5723 5720 5718 5715 5713 5710 5708
5794 5793 5792 5791 5789 5788 5786 5785 5784 5782 5780 5778 5776 5774 5772 5770 5767 5765 5762 5760 5757 5754 5751 5748 5745 5743 5740 5737 5734 5731 5728 5726 5723 5720 5717 5714 5711 5709 5706 5703 5701 5698 5696
5784 5783 5782 5781 5779 5778 5776 5775 5773 5771 5769 5767 5765 5763 5761 5759 5757 5754 5751 5749 5746 5743 5740 5737 5734 5731 5728 5725 5722 5720 5717 5714 5711 5708 5705 5702 5699 5696 5694 5691 5689 5686 5684
5774 5772 5771 5770 5769 5768 5766 5764 5763 5761 5758 5757 5754 5752 5750 5748 5745 5742 5740 5737 5735 5732 5729 5726 5723 5720 5717 5714 5711 5708 5705 5702 5699 5696 5692 5689 5686 5684 5681 5679 5676 5674 5672
5764 5762 5761 5760 5759 5757 5756 5754 5751 5749 5747 5745 5743 5740 5738 5735 5733 5731 5728 5725 5723 5720 5718 5715 5711 5708 5705 5702 5699 5696 5693 5690 5687 5684 5681 5677 5674 5672 5669 5667 5664 5662 5659
5753 5752 5751 5749 5747 5746 5744 5742 5740 5738 5735 5734 5731 5729 5726 5723 5721 5718 5716 5714 5711 5708 5706 5703 5699 5696 5693 5690 5687 5684 5681 5678 5675 5672 5669 5666 5663 5660 5657 5654 5652 5649 5647
5743 5742 5739 5737 5736 5734 5733 5731 5729 5727 5725 5723 5720 5718 5715 5713 5710 5707 5705 5702 5700 5697 5695 5690 5687 5684 5681 5678 5675 5672 5668 5666 5663 5660 5657 5654 5651 5648 5645 5642 5639 5637 5635
5733 5731 5729 5727 5725 5724 5722 5720 5717 5715 5713 5711 5709 5706 5703 5701 5698 5696 5693 5691 5689 5686 5683 5680 5677 5673 5670 5666 5663 5659 5656 5653 5650 5647 5644 5642 5639 5636 5633 5630 5627 5625 5623
5722 5720 5718 5716 5715 5713 5710 5708 5706 5704 5702 5700 5698 5695 5691 5689 5687 5684 5682 5679 5677 5674 5671 5668 5665 5662 5658 5654 5651 5647 5644 5641 5637 5634 5631 5629 5626 5623 5621 5618 5616 5613 5611
5711 5710 5708 5705 5703 5701 5699 5698 5695 5692 5690 5689 5686 5684 5681 5678 5675 5673 5670 5667 5664 5661 5659 5656 5653 5649 5646 5643 5639 5635 5632 5628 5625 5622 5619 5616 5613 5611 5608 5606 5603 5601 5599